Location: Valley of Enchantment
(34.2467°N, 117.3048°W)
Time: 03:54:44
(UTC+00:00)

Cosmos 1818 - Pass Details

Date: 10 September 2024
Orbit: 771 x 801 km, 65.0° (Epoch: 09 October)

Event Time Altitude Azimuth Distance (km) Brightness Sun altitude
Rises 12:29:36 0° 325° (NW) 3,309 6.6 -13.0°
Reaches altitude 10° 12:32:06 10° 321° (NW) 2,373 5.8 -12.5°
Maximum altitude 12:37:22 51° 246° (WSW) 994 3.7 -11.4°
Drops below altitude 10° 12:42:34 10° 172° (S) 2,344 6.0 -10.4°
Sets 12:45:01 0° 167° (SSE) 3,264 6.8 -9.9°
